星链-36589(STARLINK-36589)

导读 | 豆包AI

STARLINK-36589是美国太空探索技术公司星链星座的一员,于2026年2月16日发射。星链项目旨在构建全球卫星互联网星座,为全球偏远地区、海洋等网络覆盖薄弱区域提供高速宽带服务,该卫星入轨后将助力星链系统进一步扩容,提升星座服务覆盖能力与网络稳定性。

基本信息
目录编号:
67843
目录名称:
STARLINK-36589
国际标识:
2026-033Y
轨道中心:
EARTH
卫星名称:
星链-36589
卫星全名:
星链-36589(STARLINK-36589)
卫星状态:
在轨 (已飞行26 天)
发射日期:
2026-02-16 UTC
国别 :
美国 (US)
星等 :
--
轨道信息
数据来源 国际轨道数据
星历时间: 2026-03-14T14:00:02+0800
13小时前
查看轨道信息
半长轴: 6742.592km
偏心率: 0.0001693
轨道倾角: 42.999°
近地点辐角 276.513°
升交点赤经 243.561°
平近点角 146.931°
近地点: 363.313km
远地点: 365.597km
周期: 91.833分钟
每日圈数: 15.680592
详细信息
固有亮度:
5
最大亮度:
2.5
卫星平台:
Starlink V1.0
覆盖范围:
全球
运营商:
太空探索技术公司
运营商所在国:
美国
制造商(研发单位):
太空探索技术公司
制造商所在国:
美国
使用方式:
暂无
卫星简介
Starlink 计划是 SpaceX 推出的全球卫星互联网项目,通过发射低轨道卫星,为全球尤其是偏远地区提供高速、低延迟的互联网服务。自 2019 年起,Starlink 已部署数千颗卫星,旨在缩小全球数字鸿沟,推动互联网普及。该项目还为军事、航空等行业提供通信支持,带来广泛经济效益。
2D轨道图
3D轨道图
轨道高度分析图
轨道倾角分析图
轨道综合分析图
查看轨道综合分析图